Regional Weather Roundup
Issued by NWS Cleveland, OH

Home | Current Version | Previous Version | Text Only | Print | Product List | Glossary Off
Versions: 1 2 3 4 5 6 7 8 9 10 11 12 13 14 15 16 17 18 19 20 21 22 23 24 25 26 27 28 29 30 31 32 33 34 35 36 37 38 39 40 41 42 43 44 45 46 47 48 49 50

000
ASUS41 KCLE 310400
RWRCLE
OHIO REGIONAL WEATHER ROUNDUP
NATIONAL WEATHER SERVICE WILMINGTON, OH
1200 AM EDT FRI OCT 31 2014

NOTE: "FAIR" INDICATES FEW OR NO CLOUDS BELOW 12,000 FEET WITH NO
SIGNIFICANT WEATHER AND/OR OBSTRUCTIONS TO VISIBILITY.

OHZ001>008-015>018-024>027-034-035-043-044-310500-
   NORTHWEST OHIO

CITY           SKY/WX    TMP DP  RH WIND       PRES   REMARKS
DEFIANCE       CLOUDY    45  36  70 SW3       30.03F
FINDLAY        CLOUDY    44  38  79 SW5       30.03F
TOLEDO EXPRESS CLOUDY    45  34  65 SW5       30.02F
TOLEDO METCALF CLOUDY    45  36  70 SW3       30.03F
LIMA           CLOUDY    43  37  79 S5        30.04S
$$

OHZ009>014-019>023-028>033-038-089-310500-
   NORTHEAST OHIO

CITY           SKY/WX    TMP DP  RH WIND       PRES   REMARKS
CLE-HOPKINS    CLOUDY    43  36  76 S5        30.05F
CLE-LAKEFRONT  PTCLDY   N/A N/A N/A S7        30.04
CUY CO. ARPT   NOT AVBL
LORAIN-ELYRIA  CLOUDY    43  38  82 CALM      30.04F
ASHTABULA      PTCLDY    37  34  89 CALM      30.04F
AKRON-CANTON   CLOUDY    45  37  73 CALM      30.03F
WOOSTER        NOT AVBL
MANSFIELD      CLOUDY    44  36  73 S3        30.03F
YOUNGSTOWN     CLOUDY    43  38  82 CALM      30.03F
$$

OHZ042-051>053-060>062-070>072-077>081-310500-
  SOUTHWEST OHIO

CITY           SKY/WX    TMP DP  RH WIND       PRES   REMARKS
CINC-COVINGTON PTCLDY    43  35  73 CALM      30.04F
CINC-LUNKEN    MOCLDY    40  37  89 CALM      30.06F
HAMILTON       MOCLDY    38  35  89 CALM      30.06F
DAYTON         NOT AVBL
WRIGHT-PAT AFB CLOUDY    37  33  85 CALM      30.05F
DAYTON GENERAL PTCLDY    38  34  85 NE7       30.04F
WILMINGTON     CLEAR     38  32  79 E3        30.04F
$$

OHZ036-037-039>041-045>050-054>059-063>069-073>076-082>088-310500-
  CENTRAL AND SOUTHEAST OHIO

CITY           SKY/WX    TMP DP  RH WIND       PRES   REMARKS
COLUMBUS       CLOUDY    47  35  63 CALM      30.04F
OSU AIRPORT    PTCLDY    44  35  70 CALM      30.04F
BOLTON FIELD   NOT AVBL
RICKENBACK AFB NOT AVBL
NEWARK         CLOUDY    46  35  65 S5        30.04F
MARION         CLOUDY    45  37  73 CALM      30.04F
LANCASTER      CLOUDY    40  36  86 CALM      30.05F
ZANESVILLE     CLOUDY    44  35  70 CALM      30.04F
NEW PHILLY     CLOUDY    46  39  76 CALM      30.05F
$$



USA.gov is the U.S. government's official web portal to all federal, state and local government web resources and services.